Chapel Hill, NC

8:43 PM EST on February 22, 2017 (GMT -0500)
Williams

Weather History for KIGX - April, 2014

Change the Weather History Date:

Tuesday, April 1, 2014

  Actual Average Record
Temperature  
Mean Temperature 61 °F -  
Max Temperature 81 °F 67 °F 88 °F (1986)
Min Temperature 42 °F 42 °F 26 °F (1987)
Degree Days  
Heating Degree Days 4    
Growing Degree Days 11 (Base 50)    
Moisture  
Dew Point 33 °F    
Average Humidity 41    
Maximum Humidity 73    
Minimum Humidity 15    
Precipitation  
Precipitation 0.00 in - - ()
Sea Level Pressure  
Sea Level Pressure 30.07 in    
Wind  
Wind Speed 1 mph (SW)    
Max Wind Speed 8 mph    
Max Gust Speed -    
Visibility 10 miles    
Events      
Averages and records for this station are not official NWS values.
T = Trace of Precipitation, MM = Missing Value Source: NWS Daily Summary

Daily Weather History Graph

Daily Weather History Graph

Search for Another Location

Airport or City:

Trip Planner

Search our weather history database for the weather conditions in past years. The results will help you decide how hot, cold, wet, or windy it might be!

Date:

Astronomy

Apr. 01, 2014 Rise Set
Actual Time 7:02 AM EDT 7:38 PM EDT
Civil Twilight 6:36 AM EDT 8:03 PM EDT
Nautical Twilight 6:06 AM EDT 8:34 PM EDT
Astronomical Twilight 5:35 AM EDT 9:05 PM EDT
Moon 8:07 AM EDT (4/1) 9:54 PM EDT (4/1)
Length of Visible Light 13h 27m
Length of Day
12h 35m
Waxing Crescent, 4% of the Moon is Illuminated
Apr 1
Waxing Crescent
Apr 7
First Quarter
Apr 15
Full
Apr 22
Last Quarter
Apr 29
New

Hourly Weather History & Observations

Time (EDT) Temp. Dew Point Humidity Pressure Visibility Wind Dir Wind Speed Gust Speed Precip Events Conditions
12:56 AM 46.9 °F 35.1 °F 63% 30.11 in 10.0 mi Calm Calm - N/A   Clear
1:56 AM 45.0 °F 30.9 °F 58% 30.10 in 10.0 mi Calm Calm - N/A   Clear
2:56 AM 45.0 °F 33.1 °F 63% 30.09 in 10.0 mi Calm Calm - N/A   Clear
3:56 AM 44.1 °F 32.0 °F 63% 30.08 in 10.0 mi Calm Calm - N/A   Clear
4:56 AM 43.0 °F 34.0 °F 71% 30.09 in 10.0 mi Calm Calm - N/A   Clear
5:56 AM 43.0 °F 34.0 °F 71% 30.11 in 10.0 mi Calm Calm - N/A   Clear
6:56 AM 42.1 °F 34.0 °F 73% 30.11 in 10.0 mi Calm Calm - N/A   Clear
7:56 AM 44.1 °F 36.0 °F 73% 30.13 in 10.0 mi Calm Calm - N/A   Clear
8:56 AM 52.0 °F 39.9 °F 63% 30.14 in 10.0 mi Calm Calm - N/A   Clear
9:56 AM 61.0 °F 35.1 °F 38% 30.16 in 10.0 mi Calm Calm - N/A   Clear
10:56 AM 66.9 °F 32.0 °F 27% 30.14 in 10.0 mi SE 3.5 mph - N/A   Clear
11:56 AM 71.1 °F 30.9 °F 23% 30.10 in 10.0 mi Calm Calm - N/A   Clear
12:56 PM 73.9 °F 33.1 °F 22% 30.09 in 10.0 mi Calm Calm - N/A   Clear
1:56 PM 75.0 °F 28.0 °F 18% 30.06 in 10.0 mi Variable 4.6 mph - N/A   Clear
2:56 PM 78.1 °F 28.9 °F 17% 30.04 in 10.0 mi WNW 5.8 mph - N/A   Scattered Clouds
3:56 PM 78.1 °F 30.0 °F 17% 30.01 in 10.0 mi Variable 4.6 mph - N/A   Clear
4:56 PM 80.1 °F 28.9 °F 15% 30.00 in 10.0 mi WSW 8.1 mph - N/A   Clear
5:56 PM 80.1 °F 30.9 °F 17% 29.99 in 10.0 mi Calm Calm - N/A   Clear
6:56 PM 77.0 °F 30.9 °F 19% 30.00 in 10.0 mi Calm Calm - N/A   Clear
7:56 PM 68.0 °F 35.1 °F 30% 30.02 in 9.0 mi Calm Calm - N/A   Clear
8:56 PM 64.0 °F 35.1 °F 34% 30.03 in 10.0 mi Calm Calm - N/A   Clear
9:56 PM 62.1 °F 34.0 °F 35% 30.04 in 10.0 mi Calm Calm - N/A   Clear
10:56 PM 59.0 °F 34.0 °F 39% 30.04 in 10.0 mi Calm Calm - N/A   Clear
11:56 PM 57.9 °F 35.1 °F 42% 30.04 in 10.0 mi Calm Calm - N/A   Clear